カタログに戻る

STARLINK-5133

運用中通信VLEO
NORAD 53980·PAYLOAD·🇺🇸 United States

打ち上げ Oct 5, 2022 から Vandenberg Space Force Base

Loading…

次のパス (今後24時間)

TLE

最新Source: CelesTrak SupGP

元期: Sep 14, 2026, 22:12 UTC

1 53980C 22125S   26257.92548611  .00759200  00000+0  26239-1 0  2577
2 53980  53.1610  87.5809 0001265  80.0398 168.8059 15.28998812    13

AllMySatでSTARLINK-5133をリアルタイム追跡

Download on the App Store